| time (UTC) | temp F | wind direction | speed knots | gust knots | rain 1hr in | rain 24hr in | rain mn in | humidity % | barometer mb |
| 20260905073014 | 77 | 200 | 4.3 | 8.7 | 0.00 | 0.00 | 0.00 | 64 | 1006.4 |
| 20260905071518 | 78 | 220 | 3.5 | 9.6 | 0.00 | 0.00 | 0.00 | 63 | 1006.5 |
| 20260905070009 | 78 | 214 | 2.6 | 6.1 | 0.00 | 0.00 | 0.00 | 61 | 1006.4 |
| 20260905064513 | 78 | 205 | 4.3 | 13.0 | 0.00 | 0.00 | 0.00 | 61 | 1006.4 |
| 20260905063002 | 79 | 206 | 5.2 | 12.2 | 0.00 | 0.00 | 0.00 | 60 | 1006.3 |
| 20260905061602 | 79 | 198 | 6.1 | 13.9 | 0.00 | 0.00 | 0.00 | 60 | 1006.3 |
| 20260905060055 | 79 | 198 | 7.8 | 13.9 | 0.00 | 0.00 | 0.00 | 59 | 1006.3 |
| 20260905054553 | 80 | 151 | 5.2 | 13.0 | 0.00 | 0.00 | 0.00 | 57 | 1006.3 |
| 20260905053058 | 81 | 196 | 7.8 | 14.8 | 0.00 | 0.00 | 0.00 | 54 | 1006.2 |
| 20260905051552 | 81 | 195 | 7.8 | 15.6 | 0.00 | 0.00 | 0.00 | 52 | 1006.1 |
| 20260905050052 | 82 | 155 | 8.7 | 17.4 | 0.00 | 0.00 | 0.00 | 49 | 1006.1 |
| 20260905044550 | 83 | 162 | 7.8 | 17.4 | 0.00 | 0.00 | 0.00 | 47 | 1006.2 |
| 20260905043056 | 83 | 360 | 10.4 | 16.5 | 0.00 | 0.00 | 0.00 | 46 | 1006.4 |
| 20260905041549 | 84 | 149 | 8.7 | 14.8 | 0.00 | 0.00 | 0.00 | 44 | 1006.3 |
| 20260905040048 | 86 | 178 | 9.6 | 16.5 | 0.00 | 0.00 | 0.00 | 42 | 1006.3 |
| 20260905034602 | 87 | 139 | 10.4 | 20.9 | 0.00 | 0.00 | 0.00 | 40 | 1005.9 |
| 20260905033111 | 88 | 155 | 7.8 | 18.2 | 0.00 | 0.00 | 0.00 | 36 | 1006.0 |
| 20260905031557 | 90 | 202 | 1.7 | 6.1 | 0.00 | 0.00 | 0.00 | 25 | 1005.5 |
| 20260905030056 | 91 | 205 | 1.7 | 5.2 | 0.00 | 0.00 | 0.00 | 25 | 1005.0 |
| 20260905024546 | 91 | 207 | 2.6 | 5.2 | 0.00 | 0.00 | 0.00 | 24 | 1004.8 |
| 20260905023054 | 92 | 206 | 1.7 | 4.3 | 0.00 | 0.00 | 0.00 | 23 | 1004.6 |
| 20260905021547 | 93 | 206 | 2.6 | 5.2 | 0.00 | 0.00 | 0.00 | 22 | 1004.4 |
| 20260905020044 | 94 | 207 | 1.7 | 6.1 | 0.00 | 0.00 | 0.00 | 22 | 1004.2 |
| 20260905014544 | 94 | 213 | 2.6 | 8.7 | 0.00 | 0.00 | 0.00 | 22 | 1004.2 |
| 20260905013044 | 95 | 216 | 3.5 | 8.7 | 0.00 | 0.00 | 0.00 | 23 | 1004.1 |
| 20260905011546 | 95 | 212 | 2.6 | 7.0 | 0.00 | 0.00 | 0.00 | 22 | 1004.1 |
| 20260905010044 | 96 | 160 | 2.6 | 5.2 | 0.00 | 0.00 | 0.00 | 22 | 1003.9 |
| 20260905004540 | 96 | 113 | 1.7 | 5.2 | 0.00 | 0.00 | 0.00 | 23 | 1003.8 |
| 20260905003040 | 97 | 111 | 1.7 | 7.8 | 0.00 | 0.00 | 0.00 | 22 | 1003.8 |
| 20260905001546 | 97 | 116 | 2.6 | 6.1 | 0.00 | 0.00 | 0.00 | 22 | 1003.7 |
| 20260905000039 | 96 | 149 | 2.6 | 4.3 | 0.00 | 0.00 | 0.00 | 23 | 1003.6 |
| 20260904234538 | 97 | 151 | 2.6 | 6.1 | 0.00 | 0.00 | 0.00 | 23 | 1003.4 |
| 20260904233046 | 97 | 360 | 1.7 | 7.0 | 0.00 | 0.00 | 0.00 | 23 | 1003.3 |
| 20260904231540 | 97 | 160 | 3.5 | 7.0 | 0.00 | 0.00 | 0.00 | 23 | 1003.3 |
| 20260904230101 | 97 | 116 | 6.1 | 13.0 | 0.00 | 0.00 | 0.00 | 23 | 1003.3 |
| 20260904224536 | 101 | 141 | 5.2 | 11.3 | 0.00 | 0.00 | 0.00 | 23 | 1003.3 |
| 20260904223037 | 101 | 217 | 6.1 | 10.4 | 0.00 | 0.00 | 0.00 | 21 | 1003.3 |
| 20260904221533 | 101 | 164 | 6.1 | 13.0 | 0.00 | 0.00 | 0.00 | 21 | 1003.3 |
| 20260904220038 | 102 | 251 | 3.5 | 9.6 | 0.00 | 0.00 | 0.00 | 20 | 1003.4 |
| 20260904214530 | 101 | 165 | 4.3 | 9.6 | 0.00 | 0.00 | 0.00 | 21 | 1003.5 |
| 20260904213031 | 100 | 233 | 4.3 | 12.2 | 0.00 | 0.00 | 0.00 | 21 | 1003.7 |
| 20260904211527 | 100 | 203 | 2.6 | 11.3 | 0.00 | 0.00 | 0.00 | 22 | 1003.8 |
| 20260904210024 | 99 | 256 | 4.3 | 10.4 | 0.00 | 0.00 | 0.00 | 22 | 1004.0 |
| 20260904204530 | 99 | 265 | 1.7 | 9.6 | 0.00 | 0.00 | 0.00 | 23 | 1004.3 |
| 20260904203020 | 99 | 264 | 5.2 | 10.4 | 0.00 | 0.00 | 0.00 | 22 | 1004.5 |
| 20260904201517 | 99 | 202 | 4.3 | 10.4 | 0.00 | 0.00 | 0.00 | 23 | 1004.7 |
| 20260904200016 | 99 | 228 | 5.2 | 10.4 | 0.00 | 0.00 | 0.00 | 23 | 1004.8 |
| 20260904194513 | 100 | 160 | 6.1 | 14.8 | 0.00 | 0.00 | 0.00 | 23 | 1005.0 |
| 20260904193013 | 100 | 179 | 3.5 | 10.4 | 0.00 | 0.00 | 0.00 | 23 | 1005.1 |
| 20260904191512 | 100 | 226 | 4.3 | 10.4 | 0.00 | 0.00 | 0.00 | 22 | 1005.5 |
| 20260904190011 | 100 | 279 | 3.5 | 9.6 | 0.00 | 0.00 | 0.00 | 23 | 1005.6 |
| 20260904184507 | 100 | 212 | 1.7 | 7.0 | 0.00 | 0.00 | 0.00 | 24 | 1005.9 |
| 20260904183003 | 98 | 190 | 2.6 | 7.8 | 0.00 | 0.00 | 0.00 | 26 | 1006.1 |
| 20260904181559 | 97 | 234 | 4.3 | 0.0 | 0.00 | 0.00 | 0.00 | 27 | 1006.2 |
| 20260904180059 | 96 | 260 | 2.6 | 5.2 | 0.00 | 0.00 | 0.00 | 27 | 1006.5 |
| 20260904174553 | 96 | 277 | 2.6 | 8.7 | 0.00 | 0.00 | 0.00 | 28 | 1006.8 |
| 20260904173055 | 95 | 271 | 3.5 | 8.7 | 0.00 | 0.00 | 0.00 | 29 | 1007.0 |
| 20260904171607 | 94 | 233 | 3.5 | 7.8 | 0.00 | 0.00 | 0.00 | 30 | 1007.1 |
| 20260904170046 | 93 | 257 | 4.3 | 7.8 | 0.00 | 0.00 | 0.00 | 30 | 1007.2 |
| 20260904164549 | 92 | 285 | 3.5 | 7.8 | 0.00 | 0.00 | 0.00 | 32 | 1007.1 |
| 20260904163038 | 91 | 303 | 4.3 | 8.7 | 0.00 | 0.00 | 0.00 | 33 | 1007.1 |
| 20260904161545 | 91 | 285 | 4.3 | 9.6 | 0.00 | 0.00 | 0.00 | 34 | 1007.1 |
| 20260904160032 | 90 | 281 | 3.5 | 9.6 | 0.00 | 0.00 | 0.00 | 35 | 1007.1 |
| 20260904154530 | 89 | 286 | 2.6 | 6.1 | 0.00 | 0.00 | 0.00 | 37 | 1007.1 |
| 20260904153039 | 87 | 287 | 1.7 | 6.1 | 0.00 | 0.00 | 0.00 | 39 | 1007.1 |
| 20260904151524 | 86 | 283 | 3.5 | 9.6 | 0.00 | 0.00 | 0.00 | 40 | 1007.2 |
| 20260904150030 | 85 | 304 | 3.5 | 7.0 | 0.00 | 0.00 | 0.00 | 42 | 1007.2 |
| 20260904144517 | 84 | 276 | 3.5 | 7.0 | 0.00 | 0.00 | 0.00 | 43 | 1007.2 |
| 20260904143021 | 83 | 285 | 1.7 | 4.3 | 0.00 | 0.00 | 0.00 | 44 | 1007.1 |
| 20260904141516 | 81 | 285 | 2.6 | 5.2 | 0.00 | 0.00 | 0.00 | 46 | 1007.2 |
| 20260904140026 | 80 | 288 | 3.5 | 6.1 | 0.00 | 0.00 | 0.00 | 48 | 1007.1 |
| 20260904134512 | 78 | 195 | 2.6 | 4.3 | 0.00 | 0.00 | 0.00 | 49 | 1007.1 |
| 20260904133008 | 78 | 178 | 0.9 | 2.6 | 0.00 | 0.00 | 0.00 | 51 | 1006.9 |
| 20260904131525 | 78 | 177 | 0.0 | 2.6 | 0.00 | 0.00 | 0.00 | 51 | 1006.7 |
| 20260904130006 | 77 | 178 | 0.0 | 2.6 | 0.00 | 0.00 | 0.00 | 48 | 1006.5 |
| 20260904124502 | 77 | 178 | 0.9 | 3.5 | 0.00 | 0.00 | 0.00 | 48 | 1006.2 |
| 20260904123059 | 77 | 178 | 0.9 | 2.6 | 0.00 | 0.00 | 0.00 | 48 | 1005.9 |
| 20260904121600 | 77 | 178 | 0.9 | 2.6 | 0.00 | 0.00 | 0.00 | 48 | 1005.9 |
| 20260904120058 | 77 | 178 | 0.0 | 1.7 | 0.00 | 0.00 | 0.00 | 48 | 1005.9 |
| 20260904114604 | 78 | 178 | 0.9 | 2.6 | 0.00 | 0.00 | 0.00 | 47 | 1006.1 |
| 20260904113056 | 78 | 178 | 0.9 | 1.7 | 0.00 | 0.00 | 0.00 | 47 | 1006.1 |
| 20260904111554 | 78 | 178 | 1.7 | 3.5 | 0.00 | 0.00 | 0.00 | 47 | 1005.9 |
| 20260904110053 | 78 | 179 | 1.7 | 3.5 | 0.00 | 0.00 | 0.00 | 48 | 1005.6 |
| 20260904104557 | 78 | 178 | 1.7 | 5.2 | 0.00 | 0.00 | 0.00 | 47 | 1005.6 |
| 20260904103055 | 79 | 180 | 2.6 | 6.1 | 0.00 | 0.00 | 0.00 | 46 | 1005.6 |
| 20260904101552 | 79 | 262 | 1.7 | 4.3 | 0.00 | 0.00 | 0.00 | 46 | 1005.3 |
| 20260904100058 | 79 | 267 | 1.7 | 3.5 | 0.00 | 0.00 | 0.00 | 45 | 1005.3 |
| 20260904094601 | 79 | 268 | 1.7 | 4.3 | 0.00 | 0.00 | 0.00 | 45 | 1005.2 |
| 20260904093046 | 79 | 268 | 1.7 | 4.3 | 0.00 | 0.00 | 0.00 | 45 | 1005.2 |
| 20260904091552 | 79 | 268 | 1.7 | 4.3 | 0.00 | 0.00 | 0.00 | 46 | 1005.2 |
| 20260904090043 | 80 | 360 | 1.7 | 7.0 | 0.00 | 0.00 | 0.00 | 45 | 1005.2 |
| 20260904084541 | 80 | 278 | 3.5 | 7.0 | 0.00 | 0.00 | 0.00 | 44 | 1005.2 |
| 20260904083046 | 80 | 264 | 3.5 | 7.0 | 0.00 | 0.00 | 0.00 | 44 | 1005.3 |
| 20260904081538 | 80 | 265 | 6.1 | 11.3 | 0.00 | 0.00 | 0.00 | 44 | 1005.2 |
| 20260904080036 | 81 | 360 | 6.1 | 10.4 | 0.00 | 0.00 | 0.00 | 44 | 1005.4 |
| 20260904074539 | 81 | 283 | 6.1 | 9.6 | 0.00 | 0.00 | 0.00 | 45 | 1005.4 |